This is the latest recevied weather packets stored in our database for station/object WA4TPR. If no packets are shown the sender has not sent any weather packets the latest 10 day(s).
| Time | Temp. | Humidity | Pressure | Rain* | Wind** | Luminosity | Snow |
|---|---|---|---|---|---|---|---|
| 1778004033 | 30.56° C | 58% | 1019.2 hPa | 0 mm | - | 876 W/m² | - |
| 1778003732 | 30° C | 61% | 1019 hPa | 0 mm | - | 913 W/m² | - |
| 1778003429 | 29.44° C | 62% | 1019.3 hPa | 0 mm | - | 558 W/m² | - |
| 1778003126 | 30° C | 63% | 1019.2 hPa | 0 mm | - | 924 W/m² | - |
| 1778002822 | 29.44° C | 63% | 1019.3 hPa | 0 mm | - | 929 W/m² | - |
| 1778002519 | 29.44° C | 62% | 1019.4 hPa | 0 mm | - | 855 W/m² | - |
| 1778002216 | 28.89° C | 63% | 1019.4 hPa | 0 mm | - | 303 W/m² | - |
| 1778001914 | 30° C | 62% | 1019.3 hPa | 0 mm | - | 232 W/m² | - |
| 1778001610 | 30° C | 63% | 1019.4 hPa | 0 mm | - | 914 W/m² | - |
| 1778001305 | 29.44° C | 64% | 1019.3 hPa | 0 mm | - | 850 W/m² | - |
| 1778001002 | 29.44° C | 65% | 1019.4 hPa | 0 mm | - | 875 W/m² | - |
| 1778000699 | 29.44° C | 64% | 1019.4 hPa | 0 mm | - | 882 W/m² | - |
| 1778000394 | 28.89° C | 65% | 1019.6 hPa | 0 mm | - | 904 W/m² | - |
| 1778000090 | 28.89° C | 67% | 1019.2 hPa | 0 mm | - | 895 W/m² | - |
| 1777999786 | 28.33° C | 67% | 1019.5 hPa | 0 mm | - | 918 W/m² | - |
| 1777999483 | 28.33° C | 68% | 1019.6 hPa | 0 mm | - | 929 W/m² | - |
| 1777999181 | 27.78° C | 69% | 1019.6 hPa | 0 mm | - | 719 W/m² | - |
| 1777998879 | 28.89° C | 69% | 1019.4 hPa | 0 mm | - | 437 W/m² | - |
| 1777998578 | 28.89° C | 66% | 1019.7 hPa | 0 mm | - | 852 W/m² | - |
| 1777998273 | 28.33° C | 67% | 1019.8 hPa | 0 mm | - | 858 W/m² | - |
| 1777997970 | 27.78° C | 69% | 1019.9 hPa | 0 mm | - | 825 W/m² | - |
| 1777997667 | 28.33° C | 68% | 1019.9 hPa | 0 mm | - | 246 W/m² | - |
| 1777997365 | 28.33° C | 69% | 1020 hPa | 0 mm | - | 729 W/m² | - |
| 1777997063 | 27.78° C | 69% | 1019.9 hPa | 0 mm | - | 948 W/m² | - |
| 1777996759 | 27.78° C | 68% | 1019.9 hPa | 0 mm | - | 712 W/m² | - |
* Rain latest hour (hover to see other rain measurements)
** Current wind speed in m/s (hover to see current wind gust speed)